User: anonymous
Location: Stigler
(35.2540°N, 95.1230°W)
Time: 15:58:02
(UTC-05:00)
Language:

Cosmos 1805 - Orbit

View from above orbital plane
View from above orbital plane
View from above satellite
View from above satellite

Ground track
Ground track

The orbit data is extracted from the following two-line orbital elements,

1 17191U 86097A   14238.12054846  .00001205  00000-0  77158-4 0  9694
2 17191 082.5021 317.3629 0007711 329.2684 030.8092 15.07682170508765
Epoch (UTC): 26 August 2014 02:53:35
Eccentricity: 0.0007711
inclination: 82.5021°
perigee height: 538 km
apogee height: 548 km
right ascension of ascending node: 317.3629°
argument of perigee: 329.2684°
revolutions per day: 15.07682170
mean anomaly at epoch: 30.8092°
orbit number at epoch: 50876

The dashed part of the orbit path shows where the satellite is in the earth's shadow,  

DLR